Weather History for Ravenna, OH

Change the Weather History Date:

Wednesday, January 23, 2013

  Actual Average (KCAK) Record (KCAK)
Temperature  
Mean Temperature 10 °F 26 °F  
Max Temperature 14 °F 33 °F 73 °F (1906)
Min Temperature 5 °F 19 °F -15 °F (1963)
Degree Days  
Heating Degree Days 56 39  
Month to date heating degree days 895  
Since 1 July heating degree days 3225  
Cooling Degree Days 0 0  
Month to date cooling degree days 0  
Year to date cooling degree days 0  
Moisture  
Dew Point 3 °F    
Average Humidity 72    
Maximum Humidity 88    
Minimum Humidity 59    
Precipitation  
Precipitation 0.00 in 0.08 in 0.89 in (1965)
Month to date precipitation 1.96  
Year to date precipitation 1.96  
Snow  
Snow 0.00 in 0.40 in - ()
Month to date snowfall 9.2  
Since 1 July snowfall 22.8  
Snow Depth -    
Sea Level Pressure  
Sea Level Pressure 30.15 in    
Wind  
Wind Speed 8 mph (WSW)    
Max Wind Speed 13 mph    
Max Gust Speed 21 mph    
Visibility 8 miles    
Events Snow    
T = Trace of Precipitation, MM = Missing Value Source: NWS Daily Summary

Daily Weather History Graph

Daily Weather History Graph

Search for Another Location

Airport:

Trip Planner

Search our weather history database for the weather conditions in past years. The results will help you decide how hot, cold, wet, or windy it might be!

Date:

Astronomy

Jan. 23, 2013 Rise Set
Actual Time 7:43 AM EST 5:30 PM EST
Civil Twilight 7:13 AM EST 6:00 PM EST
Nautical Twilight 6:40 AM EST 6:34 PM EST
Astronomical Twilight 6:07 AM EST 7:06 PM EST
Moon 2:39 PM EST (1/23) 4:54 AM EST (1/23)
Length of Visible Light 10h 46m
Length of Day
9h 47m
Waxing Gibbous, 89% of the Moon is Illuminated
Jan 23
Waxing Gibbous
Jan 26
Full
Feb 3
Last Quarter
Feb 10
New
Feb 17
First Quarter

Hourly Weather History & Observations

Time (EST) Temp. Windchill Dew Point Humidity Pressure Visibility Wind Dir Wind Speed Gust Speed Precip Events Conditions
12:15 AM 6.4 °F -6.3 °F -2.0 °F 68% 30.21 in 10.0 mi WSW 8.1 mph - N/A   Clear
12:35 AM 6.3 °F -8.4 °F -2.4 °F 68% 30.21 in 10.0 mi WSW 10.4 mph - N/A   Clear
12:55 AM 6.3 °F -7.5 °F -2.4 °F 68% 30.21 in 10.0 mi WSW 9.2 mph - N/A   Scattered Clouds
1:15 AM 6.3 °F -8.4 °F -3.1 °F 65% 30.21 in 10.0 mi WSW 10.4 mph 18.4 mph N/A   Clear
1:35 AM 5.7 °F -7.2 °F -3.1 °F 67% 30.21 in 10.0 mi WSW 8.1 mph - N/A   Clear
1:55 AM 5.5 °F -9.3 °F -2.9 °F 68% 30.21 in 10.0 mi WSW 10.4 mph - N/A   Clear
2:15 AM 5.4 °F -7.6 °F -3.1 °F 68% 30.21 in 10.0 mi WSW 8.1 mph - N/A   Clear
2:35 AM 5.4 °F -10.4 °F -3.1 °F 68% 30.22 in 10.0 mi WSW 11.5 mph - N/A   Clear
2:55 AM 5.4 °F -8.6 °F -3.1 °F 68% 30.22 in 10.0 mi WSW 9.2 mph - N/A   Clear
3:15 AM 5.4 °F -8.6 °F -3.1 °F 68% 30.21 in 10.0 mi WSW 9.2 mph - N/A   Clear
3:35 AM 5.5 °F -9.3 °F -2.9 °F 68% 30.21 in 10.0 mi WSW 10.4 mph - N/A   Scattered Clouds
3:55 AM 5.5 °F -9.3 °F -2.9 °F 68% 30.21 in 10.0 mi WSW 10.4 mph - N/A   Scattered Clouds
4:15 AM 5.4 °F -9.6 °F -2.7 °F 69% 30.21 in 10.0 mi WSW 10.4 mph - N/A   Clear
4:35 AM 5.5 °F -8.4 °F -2.9 °F 68% 30.21 in 10.0 mi WSW 9.2 mph - N/A   Clear
4:56 AM 5.4 °F -7.6 °F -2.6 °F 70% 30.21 in 10.0 mi WSW 8.1 mph - N/A   Clear
5:15 AM 5.2 °F -7.9 °F -2.2 °F 72% 30.20 in 10.0 mi WSW 8.1 mph - N/A   Clear
5:35 AM 5.4 °F -8.6 °F -2.0 °F 72% 30.20 in 10.0 mi WSW 9.2 mph - N/A   Clear
5:56 AM 5.5 °F -9.3 °F -1.5 °F 73% 30.20 in 10.0 mi WSW 10.4 mph 16.1 mph N/A   Clear
6:15 AM 5.5 °F -10.9 °F -1.5 °F 73% 30.21 in 10.0 mi WSW 12.7 mph - N/A   Clear
6:35 AM 5.7 °F -8.2 °F -1.3 °F 73% 30.21 in 10.0 mi WSW 9.2 mph 17.3 mph N/A   Clear
6:56 AM 5.9 °F -8.9 °F -1.3 °F 72% 30.21 in 10.0 mi WSW 10.4 mph - N/A   Clear
7:15 AM 6.1 °F -9.5 °F -1.1 °F 72% 30.22 in 10.0 mi WSW 11.5 mph 20.7 mph N/A   Scattered Clouds
7:35 AM 6.3 °F -9.2 °F -0.6 °F 73% 30.22 in 10.0 mi WSW 11.5 mph 16.1 mph N/A   Mostly Cloudy
7:56 AM 6.4 °F -8.2 °F -0.4 °F 74% 30.22 in 10.0 mi WSW 10.4 mph - N/A   Overcast
8:15 AM 6.8 °F -6.9 °F 0.1 °F 74% 30.22 in 10.0 mi WSW 9.2 mph - N/A   Overcast
8:35 AM 6.8 °F -5.9 °F 0.1 °F 74% 30.22 in 10.0 mi WSW 8.1 mph - N/A   Overcast
8:55 AM 7.3 °F -5.2 °F 0.7 °F 74% 30.22 in 10.0 mi WSW 8.1 mph - N/A   Overcast
9:15 AM 7.7 °F -4.8 °F 1.2 °F 75% 30.22 in 10.0 mi WSW 8.1 mph - N/A   Overcast
9:35 AM 7.9 °F -4.6 °F 1.2 °F 74% 30.23 in 10.0 mi WSW 8.1 mph - N/A Snow Light Snow
9:55 AM 8.6 °F -2.6 °F 1.9 °F 74% 30.23 in 7.0 mi WSW 6.9 mph - N/A Snow Light Snow
10:15 AM 9.0 °F -3.2 °F 1.0 °F 70% 30.23 in 10.0 mi West 8.1 mph - N/A   Overcast
10:35 AM 9.5 °F -3.5 °F 1.4 °F 70% 30.23 in 10.0 mi WSW 9.2 mph - N/A   Overcast
10:56 AM 10.2 °F -0.6 °F 1.8 °F 69% 30.22 in 10.0 mi SW 6.9 mph - N/A   Overcast
11:15 AM 11.1 °F -0.6 °F 1.9 °F 67% 30.22 in 10.0 mi West 8.1 mph - N/A   Overcast
11:35 AM 11.3 °F 0.7 °F 1.9 °F 66% 30.21 in 10.0 mi SW 6.9 mph - N/A   Overcast
11:56 AM 12.2 °F -1.0 °F 1.6 °F 63% 30.20 in 10.0 mi West 10.4 mph 16.1 mph N/A   Overcast
12:15 PM 12.9 °F -0.9 °F 1.0 °F 59% 30.19 in 10.0 mi West 11.5 mph - N/A   Overcast
12:35 PM 13.6 °F 0.0 °F 2.1 °F 60% 30.18 in 10.0 mi WSW 11.5 mph - N/A   Mostly Cloudy
12:56 PM 12.9 °F 1.6 °F 2.3 °F 63% 30.17 in 7.0 mi West 8.1 mph - N/A   Overcast
1:15 PM 13.6 °F 1.6 °F 2.7 °F 62% 30.16 in 10.0 mi WSW 9.2 mph - N/A   Overcast
1:35 PM 13.8 °F 1.0 °F 2.7 °F 61% 30.15 in 7.0 mi West 10.4 mph - N/A   Overcast
1:55 PM 13.8 °F 2.7 °F 3.9 °F 65% 30.14 in 7.0 mi West 8.1 mph - N/A   Overcast
2:15 PM 13.5 °F 1.3 °F 4.1 °F 66% 30.13 in 4.0 mi West 9.2 mph - N/A   Haze
2:35 PM 14.0 °F 2.0 °F 4.6 °F 66% 30.13 in 7.0 mi WSW 9.2 mph - N/A   Overcast
2:55 PM 14.0 °F 2.9 °F 4.1 °F 65% 30.13 in 7.0 mi WSW 8.1 mph - N/A   Overcast
3:15 PM 14.0 °F 3.9 °F 4.3 °F 65% 30.12 in 7.0 mi SW 6.9 mph - N/A   Overcast
3:35 PM 13.8 °F 6.2 °F 5.5 °F 70% 30.12 in 4.0 mi SW 4.6 mph - N/A Snow Light Snow
3:56 PM 14.0 °F 8.2 °F 5.0 °F 67% 30.12 in 5.0 mi WSW 3.5 mph - N/A Snow Light Snow
4:15 PM 14.0 °F 8.2 °F 5.5 °F 69% 30.11 in 5.0 mi SW 3.5 mph - N/A   Haze
4:35 PM 13.6 °F 7.7 °F 5.2 °F 69% 30.11 in 5.0 mi SW 3.5 mph - N/A Snow Light Snow
4:55 PM 13.8 °F - 5.4 °F 69% 30.10 in 10.0 mi Calm Calm - N/A   Overcast
5:15 PM 13.6 °F - 5.5 °F 70% 30.10 in 7.0 mi Calm Calm - N/A   Overcast
5:35 PM 13.1 °F 7.1 °F 6.1 °F 74% 30.09 in 5.0 mi SSW 3.5 mph - N/A Snow Light Snow
5:55 PM 13.1 °F 7.1 °F 5.5 °F 72% 30.08 in 7.0 mi SSW 3.5 mph - N/A   Overcast
6:15 PM 13.1 °F 7.1 °F 5.9 °F 73% 30.07 in 10.0 mi SSW 3.5 mph - N/A   Overcast
6:35 PM 13.1 °F - 6.3 °F 74% 30.07 in 10.0 mi Calm Calm - N/A   Overcast
6:55 PM 13.1 °F - 6.6 °F 75% 30.08 in 10.0 mi Calm Calm - N/A   Overcast
7:15 PM 13.1 °F - 6.8 °F 76% 30.08 in 10.0 mi Calm Calm - N/A   Overcast
7:35 PM 13.5 °F - 7.5 °F 77% 30.08 in 7.0 mi Calm Calm - N/A Snow Light Snow
7:55 PM 13.5 °F - 8.2 °F 80% 30.07 in 5.0 mi Calm Calm - N/A Snow Light Snow
8:15 PM 13.5 °F - 9.0 °F 82% 30.06 in 3.0 mi Calm Calm - N/A Snow Light Snow
8:35 PM 13.5 °F - 9.1 °F 83% 30.06 in 4.0 mi Calm Calm - N/A Snow Light Snow
8:56 PM 13.6 °F - 9.5 °F 84% 30.06 in 2.0 mi Calm Calm - N/A Snow Light Snow
9:15 PM 13.6 °F - 9.7 °F 84% 30.06 in 1.5 mi Calm Calm - N/A Snow Light Snow
9:35 PM 13.5 °F - 9.9 °F 86% 30.05 in 1.5 mi Calm Calm - N/A Snow Light Snow
9:55 PM 13.5 °F - 10.0 °F 86% 30.05 in 2.5 mi Calm Calm - N/A Snow Light Snow
10:15 PM 13.5 °F - 10.2 °F 87% 30.05 in 1.5 mi Calm Calm - N/A Snow Light Snow
10:35 PM 13.3 °F - 10.2 °F 88% 30.04 in 1.8 mi Calm Calm - N/A Snow Light Snow
10:55 PM 12.9 °F - 9.5 °F 86% 30.04 in 2.0 mi Calm Calm - N/A Snow Light Snow
11:15 PM 12.7 °F - 9.5 °F 87% 30.03 in 2.0 mi Calm Calm - N/A Snow Light Snow
11:35 PM 12.4 °F - 9.5 °F 88% 30.03 in 2.5 mi Calm Calm - N/A Snow Light Snow
11:56 PM 12.0 °F - 9.1 °F 88% 30.03 in 3.0 mi Calm Calm - N/A Snow Light Snow